CW9548 Weather Reports


Display with metric or nautical units.
time (UTC)temp
F
wind
direction
speed
MPH
gust
MPH
rain 1hr
in
rain 24hr
in
rain mn
in
humidity
%
barometer
mb
20240724221543 85 6 3.0 6.0 0.00 0.00 0.00 54 1007.0
20240724221328 85 349 3.0 6.0 0.00 0.00 0.00 54 1007.2
20240724220351 84 325 4.0 7.0 0.00 0.00 0.00 55 1007.3
20240724220037 84 308 3.0 7.0 0.00 0.00 0.00 55 1007.1
20240724215327 84 359 3.0 7.0 0.00 0.00 0.00 55 1007.5
20240724214505 84 333 3.0 7.0 0.00 0.00 0.00 54 1007.3
20240724214323 85 309 4.0 7.0 0.00 0.00 0.00 55 1007.5
20240724213319 85 354 4.0 8.0 0.00 0.00 0.00 54 1007.6
20240724213029 85 351 4.0 8.0 0.00 0.00 0.00 54 1007.4
20240724212313 86 360 3.0 6.0 0.00 0.00 0.00 55 1007.6
20240724211542 84 4 2.0 7.0 0.00 0.00 0.00 56 1007.4
20240724211334 85 345 3.0 7.0 0.00 0.00 0.00 55 1007.6
20240724210328 85 321 3.0 9.0 0.00 0.00 0.00 56 1007.5
20240724210053 84 314 2.0 9.0 0.00 0.00 0.00 56 1007.3
20240724205324 84 317 3.0 6.0 0.00 0.00 0.00 57 1007.5
20240724204515 83 29 2.0 7.0 0.00 0.00 0.00 59 1007.4
20240724204318 83 329 3.0 7.0 0.00 0.00 0.00 58 1007.5
20240724203316 82 360 4.0 7.0 0.00 0.00 0.00 59 1007.7
20240724203057 82 12 3.0 7.0 0.00 0.00 0.00 60 1007.5
20240724202325 82 12 4.0 7.0 0.00 0.00 0.00 59 1007.7
20240724201506 82 50 3.0 6.0 0.00 0.00 0.00 59 1007.7
20240724201347 83 41 2.0 6.0 0.00 0.00 0.00 60 1007.8
20240724200322 82 359 2.0 6.0 0.00 0.00 0.00 60 1007.9
20240724200051 81 6 2.0 6.0 0.00 0.00 0.00 60 1007.7
20240724195311 82 326 3.0 6.0 0.00 0.00 0.00 61 1007.9
20240724194529 80 307 4.0 7.0 0.00 0.00 0.00 61 1007.8
20240724194327 81 319 3.0 7.0 0.00 0.00 0.00 61 1008.0
20240724193318 80 344 2.0 6.0 0.00 0.00 0.00 62 1008.1
20240724193028 79 344 2.0 6.0 0.00 0.00 0.00 61 1007.9
20240724192325 80 314 3.0 5.0 0.00 0.00 0.00 62 1008.1
20240724191514 79 295 1.0 5.0 0.00 0.00 0.00 62 1007.9
20240724191342 79 293 3.0 7.0 0.00 0.00 0.00 62 1008.1
20240724190317 80 320 3.0 7.0 0.00 0.00 0.00 62 1008.2
20240724190042 79 307 4.0 7.0 0.00 0.00 0.00 60 1008.0
20240724185333 80 288 4.0 8.0 0.00 0.00 0.00 60 1008.2
20240724184507 80 278 3.0 7.0 0.00 0.00 0.00 61 1008.0
20240724184323 80 277 3.0 7.0 0.00 0.00 0.00 62 1008.1
20240724183313 80 333 3.0 6.0 0.00 0.00 0.00 62 1008.1
20240724183033 80 321 2.0 5.0 0.00 0.00 0.00 63 1007.9
20240724182320 80 326 3.0 5.0 0.00 0.00 0.00 64 1008.1
20240724181526 79 313 1.0 5.0 0.00 0.00 0.00 65 1007.9
20240724181356 79 313 1.0 5.0 0.00 0.00 0.00 64 1008.1
20240724180323 78 316 3.0 6.0 0.00 0.00 0.00 66 1008.2
20240724180009 78 302 1.0 6.0 0.00 0.00 0.00 65 1008.0
20240724175313 77 304 4.0 6.0 0.00 0.00 0.00 65 1008.2
20240724174544 76 300 2.0 5.0 0.00 0.00 0.00 67 1008.0
20240724174328 77 303 1.0 4.0 0.00 0.00 0.00 66 1008.1
20240724173319 76 302 3.0 6.0 0.00 0.00 0.00 67 1008.2
20240724173042 75 310 3.0 6.0 0.00 0.00 0.00 66 1008.0
20240724172326 75 285 3.0 5.0 0.00 0.00 0.00 69 1008.2
20240724171554 74 286 2.0 4.0 0.00 0.00 0.00 69 1008.1
20240724171342 75 285 2.0 4.0 0.00 0.00 0.00 69 1008.3
20240724170312 74 276 3.0 5.0 0.00 0.00 0.00 71 1008.3
20240724170037 73 275 1.0 4.0 0.00 0.00 0.00 72 1008.1
20240724165331 73 304 2.0 5.0 0.00 0.00 0.00 73 1008.3
20240724164506 72 298 2.0 5.0 0.00 0.00 0.00 73 1008.2
20240724164342 73 309 2.0 5.0 0.00 0.00 0.00 74 1008.3
20240724163313 72 297 2.0 4.0 0.00 0.00 0.00 76 1008.3
20240724163102 71 297 2.0 4.0 0.00 0.00 0.00 77 1008.2
20240724162324 71 297 2.0 4.0 0.00 0.00 0.00 78 1008.3
20240724161552 69 305 1.0 3.0 0.00 0.00 0.00 79 1008.1
20240724161317 69 305 1.0 3.0 0.00 0.00 0.00 80 1008.3
20240724160334 68 300 1.0 4.0 0.00 0.00 0.00 82 1008.2
20240724160056 68 300 2.0 4.0 0.00 0.00 0.00 82 1008.0
20240724160002 68 300 2.0 4.0 0.00 0.00 0.00 83 1008.0
20240724155329 67 299 1.0 4.0 0.00 0.00 0.00 86 1008.1
20240724154532 66 300 1.0 3.0 0.00 0.00 0.00 88 1008.0
20240724154320 66 300 2.0 3.0 0.00 0.00 0.00 89 1008.1